Time,TemperatureF,DewpointF,PressureIn,WindDirection,WindDirectionDegrees,WindSpeedMPH,WindSpeedGustMPH,Humidity,HourlyPrecipIn,Conditions,Clouds,dailyrainin,SolarRadiationWatts/m^2,SoftwareType,DateUTC
2013-03-11 00:12:00,29.0,19.0,-100.00,WSW,240,5.0,7.0,66,0.00,,,0.00,0.000000,,2013-03-11 06:12:00,
2013-03-11 00:22:00,29.0,19.0,-100.00,WSW,240,5.0,7.0,66,0.00,,,0.00,0.000000,,2013-03-11 06:22:00,
2013-03-11 00:32:00,29.0,19.0,-100.00,WSW,240,5.0,7.0,66,0.00,,,0.00,0.000000,,2013-03-11 06:32:00,
2013-03-11 00:42:00,29.0,19.0,-100.00,WSW,240,5.0,7.0,66,0.00,,,0.00,0.000000,,2013-03-11 06:42:00,
2013-03-11 00:51:00,29.0,18.0,-100.00,SSE,160,0.0,7.0,63,0.00,,,0.00,0.000000,,2013-03-11 06:51:00,
2013-03-11 01:12:00,29.0,18.0,-100.00,SSE,160,0.0,7.0,63,0.00,,,0.00,0.000000,,2013-03-11 07:12:00,
2013-03-11 01:22:00,29.0,18.0,-100.00,SSE,160,0.0,7.0,63,0.00,,,0.00,0.000000,,2013-03-11 07:22:00,
2013-03-11 01:32:00,29.0,18.0,-100.00,SSE,160,0.0,7.0,63,0.00,,,0.00,0.000000,,2013-03-11 07:32:00,
2013-03-11 01:42:00,29.0,18.0,-100.00,SSE,160,0.0,7.0,63,0.00,,,0.00,0.000000,,2013-03-11 07:42:00,
2013-03-11 01:51:00,29.0,17.0,-100.00,ENE,66,1.0,5.0,61,0.00,,,0.00,0.000000,,2013-03-11 07:51:00,
2013-03-11 02:22:00,29.0,17.0,-100.00,ENE,66,1.0,5.0,61,0.00,,,0.00,0.000000,,2013-03-11 08:22:00,
2013-03-11 02:32:00,29.0,17.0,-100.00,ENE,66,1.0,5.0,61,0.00,,,0.00,0.000000,,2013-03-11 08:32:00,
2013-03-11 02:42:00,29.0,17.0,-100.00,ENE,66,1.0,5.0,61,0.00,,,0.00,0.000000,,2013-03-11 08:42:00,
2013-03-11 02:51:00,26.0,19.0,-100.00,West,278,1.0,4.0,73,0.00,,,-99.99,0.000000,,2013-03-11 08:51:00,
2013-03-11 03:12:00,26.0,19.0,-100.00,West,278,1.0,4.0,73,0.00,,,-99.99,0.000000,,2013-03-11 09:12:00,
2013-03-11 03:22:00,26.0,19.0,-100.00,West,278,1.0,4.0,73,0.00,,,-99.99,0.000000,,2013-03-11 09:22:00,
2013-03-11 03:32:00,26.0,19.0,-100.00,West,278,1.0,4.0,73,0.00,,,-99.99,0.000000,,2013-03-11 09:32:00,
2013-03-11 03:42:00,26.0,19.0,-100.00,West,278,1.0,4.0,73,0.00,,,-99.99,0.000000,,2013-03-11 09:42:00,
2013-03-11 04:51:00,26.0,19.0,-100.00,NNW,332,3.0,6.0,74,-99.99,,,0.00,0.000000,,2013-03-11 10:51:00,
2013-03-11 05:12:00,26.0,19.0,-100.00,NNW,332,3.0,6.0,74,-99.99,,,0.00,0.000000,,2013-03-11 11:12:00,
2013-03-11 05:22:00,26.0,19.0,-100.00,NNW,332,3.0,6.0,74,-99.99,,,0.00,0.000000,,2013-03-11 11:22:00,
2013-03-11 05:32:00,26.0,19.0,-100.00,NNW,332,3.0,6.0,74,-99.99,,,0.00,0.000000,,2013-03-11 11:32:00,
2013-03-11 05:42:00,26.0,19.0,-100.00,NNW,332,3.0,6.0,74,-99.99,,,0.00,0.000000,,2013-03-11 11:42:00,
2013-03-11 06:51:00,24.0,17.0,-100.00,ESE,117,2.0,5.0,74,0.00,,,-99.99,0.000000,,2013-03-11 12:51:00,
2013-03-11 07:22:00,24.0,17.0,-100.00,ESE,117,2.0,5.0,74,0.00,,,-99.99,0.000000,,2013-03-11 13:22:00,
2013-03-11 07:32:00,24.0,17.0,-100.00,ESE,117,2.0,5.0,74,0.00,,,-99.99,0.000000,,2013-03-11 13:32:00,
2013-03-11 07:42:00,24.0,17.0,-100.00,ESE,117,2.0,5.0,74,0.00,,,-99.99,0.000000,,2013-03-11 13:42:00,
2013-03-11 07:51:00,25.0,19.0,-100.00,NW,326,3.0,6.0,76,0.00,,,0.00,8.000000,,2013-03-11 13:51:00,
2013-03-11 08:12:00,25.0,19.0,-100.00,NW,326,3.0,6.0,76,0.00,,,0.00,8.000000,,2013-03-11 14:12:00,
2013-03-11 08:22:00,25.0,19.0,-100.00,NW,326,3.0,6.0,76,0.00,,,0.00,8.000000,,2013-03-11 14:22:00,
2013-03-11 08:32:00,25.0,19.0,-100.00,NW,326,3.0,6.0,76,0.00,,,0.00,8.000000,,2013-03-11 14:32:00,
2013-03-11 08:42:00,25.0,19.0,-100.00,NW,326,3.0,6.0,76,0.00,,,0.00,8.000000,,2013-03-11 14:42:00,
2013-03-11 08:51:00,28.0,18.0,-100.00,SE,142,4.0,8.0,65,0.00,,,0.00,92.000000,,2013-03-11 14:51:00,
2013-03-11 09:22:00,28.0,18.0,-100.00,SE,142,4.0,8.0,65,0.00,,,0.00,92.000000,,2013-03-11 15:22:00,
2013-03-11 09:32:00,28.0,18.0,-100.00,SE,142,4.0,8.0,65,0.00,,,0.00,92.000000,,2013-03-11 15:32:00,
2013-03-11 09:42:00,28.0,18.0,-100.00,SE,142,4.0,8.0,65,0.00,,,0.00,92.000000,,2013-03-11 15:42:00,
2013-03-11 09:51:00,31.0,21.0,-100.00,NNE,33,3.0,7.0,65,0.00,,,0.00,330.000000,,2013-03-11 15:51:00,
2013-03-11 10:12:00,31.0,21.0,-100.00,NNE,33,3.0,7.0,65,0.00,,,0.00,330.000000,,2013-03-11 16:12:00,
2013-03-11 10:22:00,31.0,21.0,-100.00,NNE,33,3.0,7.0,65,0.00,,,0.00,330.000000,,2013-03-11 16:22:00,
2013-03-11 10:32:00,31.0,21.0,-100.00,NNE,33,3.0,7.0,65,0.00,,,0.00,330.000000,,2013-03-11 16:32:00,
2013-03-11 10:42:00,31.0,21.0,-100.00,NNE,33,3.0,7.0,65,0.00,,,0.00,330.000000,,2013-03-11 16:42:00,
2013-03-11 10:51:00,37.0,21.0,-100.00,WSW,243,0.0,5.0,53,0.00,,,-99.99,494.000000,,2013-03-11 16:51:00,
2013-03-11 11:13:00,37.0,21.0,-100.00,WSW,243,0.0,5.0,53,0.00,,,-99.99,494.000000,,2013-03-11 17:13:00,
2013-03-11 11:24:00,37.0,21.0,-100.00,WSW,243,0.0,5.0,53,0.00,,,-99.99,494.000000,,2013-03-11 17:24:00,
2013-03-11 11:34:00,37.0,21.0,-100.00,WSW,243,0.0,5.0,53,0.00,,,-99.99,494.000000,,2013-03-11 17:34:00,
2013-03-11 11:42:00,37.0,21.0,-100.00,WSW,243,0.0,5.0,53,0.00,,,-99.99,494.000000,,2013-03-11 17:42:00,
2013-03-11 11:51:00,39.0,21.0,-100.00,North,5,3.0,7.0,49,0.00,,,0.00,591.000000,,2013-03-11 17:51:00,
2013-03-11 12:12:00,39.0,21.0,-100.00,North,5,3.0,7.0,49,0.00,,,0.00,591.000000,,2013-03-11 18:12:00,
2013-03-11 12:22:00,39.0,21.0,-100.00,North,5,3.0,7.0,49,0.00,,,0.00,591.000000,,2013-03-11 18:22:00,
2013-03-11 12:32:00,39.0,21.0,-100.00,North,5,3.0,7.0,49,0.00,,,0.00,591.000000,,2013-03-11 18:32:00,
2013-03-11 12:42:00,39.0,21.0,-100.00,North,5,3.0,7.0,49,0.00,,,0.00,591.000000,,2013-03-11 18:42:00,
2013-03-11 12:51:00,41.0,22.0,-100.00,NNW,335,5.0,8.0,46,0.00,,,0.00,606.000000,,2013-03-11 18:51:00,
2013-03-11 13:22:00,41.0,22.0,-100.00,NNW,335,5.0,8.0,46,0.00,,,0.00,606.000000,,2013-03-11 19:22:00,
2013-03-11 13:32:00,41.0,22.0,-100.00,NNW,335,5.0,8.0,46,0.00,,,0.00,606.000000,,2013-03-11 19:32:00,
2013-03-11 13:42:00,41.0,22.0,-100.00,NNW,335,5.0,8.0,46,0.00,,,0.00,606.000000,,2013-03-11 19:42:00,
2013-03-11 13:51:00,42.0,23.0,-100.00,West,268,9.0,15.0,46,0.00,,,0.00,659.000000,,2013-03-11 19:51:00,
2013-03-11 14:22:00,42.0,23.0,-100.00,West,268,9.0,15.0,46,0.00,,,0.00,659.000000,,2013-03-11 20:22:00,
2013-03-11 14:32:00,42.0,23.0,-100.00,West,268,9.0,15.0,46,0.00,,,0.00,659.000000,,2013-03-11 20:32:00,
2013-03-11 14:43:00,42.0,23.0,-100.00,West,268,9.0,15.0,46,0.00,,,0.00,659.000000,,2013-03-11 20:43:00,
2013-03-11 14:51:00,45.0,24.0,-100.00,WSW,256,16.0,23.0,44,0.00,,,0.00,814.000000,,2013-03-11 20:51:00,
2013-03-11 15:22:00,45.0,24.0,-100.00,WSW,256,16.0,23.0,44,0.00,,,0.00,814.000000,,2013-03-11 21:22:00,
2013-03-11 15:32:00,45.0,24.0,-100.00,WSW,256,16.0,23.0,44,0.00,,,0.00,814.000000,,2013-03-11 21:32:00,
2013-03-11 15:43:00,45.0,24.0,-100.00,WSW,256,16.0,23.0,44,0.00,,,0.00,814.000000,,2013-03-11 21:43:00,
2013-03-11 15:51:00,46.0,21.0,-100.00,West,273,13.0,21.0,37,0.00,,,0.00,730.000000,,2013-03-11 21:51:00,
2013-03-11 16:22:00,46.0,21.0,-100.00,West,273,13.0,21.0,37,0.00,,,0.00,730.000000,,2013-03-11 22:22:00,
2013-03-11 16:32:00,46.0,21.0,-100.00,West,273,13.0,21.0,37,0.00,,,0.00,730.000000,,2013-03-11 22:32:00,
2013-03-11 16:43:00,46.0,21.0,-100.00,West,273,13.0,21.0,37,0.00,,,0.00,730.000000,,2013-03-11 22:43:00,
2013-03-11 16:51:00,45.0,21.0,-100.00,West,267,12.0,22.0,38,0.00,,,0.00,522.000000,,2013-03-11 22:51:00,
2013-03-11 17:12:00,45.0,21.0,-100.00,West,267,12.0,22.0,38,0.00,,,0.00,522.000000,,2013-03-11 23:12:00,
2013-03-11 17:22:00,45.0,21.0,-100.00,West,267,12.0,22.0,38,0.00,,,0.00,522.000000,,2013-03-11 23:22:00,
2013-03-11 17:32:00,45.0,21.0,-100.00,West,267,12.0,22.0,38,0.00,,,0.00,522.000000,,2013-03-11 23:32:00,
2013-03-11 17:42:00,45.0,21.0,-100.00,West,267,12.0,22.0,38,0.00,,,0.00,522.000000,,2013-03-11 23:42:00,
2013-03-11 17:51:00,47.0,21.0,-100.00,West,271,10.0,19.0,36,0.00,,,0.00,373.000000,,2013-03-11 23:51:00,
2013-03-11 18:12:00,47.0,21.0,-100.00,West,271,10.0,19.0,36,0.00,,,0.00,373.000000,,2013-03-12 00:12:00,
2013-03-11 18:22:00,47.0,21.0,-100.00,West,271,10.0,19.0,36,0.00,,,0.00,373.000000,,2013-03-12 00:22:00,
2013-03-11 18:32:00,47.0,21.0,-100.00,West,271,10.0,19.0,36,0.00,,,0.00,373.000000,,2013-03-12 00:32:00,
2013-03-11 18:42:00,47.0,21.0,-100.00,West,271,10.0,19.0,36,0.00,,,0.00,373.000000,,2013-03-12 00:42:00,
2013-03-11 18:51:00,43.0,23.0,-100.00,West,274,12.0,18.0,45,0.00,,,0.00,154.000000,,2013-03-12 00:51:00,
2013-03-11 19:22:00,43.0,23.0,-100.00,West,274,12.0,18.0,45,0.00,,,0.00,154.000000,,2013-03-12 01:22:00,
2013-03-11 19:32:00,43.0,23.0,-100.00,West,274,12.0,18.0,45,0.00,,,0.00,154.000000,,2013-03-12 01:32:00,
2013-03-11 19:42:00,43.0,23.0,-100.00,West,274,12.0,18.0,45,0.00,,,0.00,154.000000,,2013-03-12 01:42:00,
2013-03-11 19:51:00,42.0,23.0,-100.00,West,263,10.0,17.0,47,0.00,,,0.00,7.000000,,2013-03-12 01:51:00,
2013-03-11 20:22:00,42.0,23.0,-100.00,West,263,10.0,17.0,47,0.00,,,0.00,7.000000,,2013-03-12 02:22:00,
2013-03-11 20:32:00,42.0,23.0,-100.00,West,263,10.0,17.0,47,0.00,,,0.00,7.000000,,2013-03-12 02:32:00,
2013-03-11 20:42:00,42.0,23.0,-100.00,West,263,10.0,17.0,47,0.00,,,0.00,7.000000,,2013-03-12 02:42:00,
2013-03-11 20:51:00,41.0,23.0,-100.00,West,268,11.0,18.0,49,0.00,,,0.00,0.000000,,2013-03-12 02:51:00,
2013-03-11 21:12:00,41.0,23.0,-100.00,West,268,11.0,18.0,49,0.00,,,0.00,0.000000,,2013-03-12 03:12:00,
2013-03-11 21:22:00,41.0,23.0,-100.00,West,268,11.0,18.0,49,0.00,,,0.00,0.000000,,2013-03-12 03:22:00,
2013-03-11 21:32:00,41.0,23.0,-100.00,West,268,11.0,18.0,49,0.00,,,0.00,0.000000,,2013-03-12 03:32:00,
2013-03-11 21:42:00,41.0,23.0,-100.00,West,268,11.0,18.0,49,0.00,,,0.00,0.000000,,2013-03-12 03:42:00,
2013-03-11 21:51:00,42.0,24.0,-100.00,WNW,288,10.0,16.0,49,0.00,,,-99.99,0.000000,,2013-03-12 03:51:00,
2013-03-11 22:12:00,42.0,24.0,-100.00,WNW,288,10.0,16.0,49,0.00,,,-99.99,0.000000,,2013-03-12 04:12:00,
2013-03-11 22:22:00,42.0,24.0,-100.00,WNW,288,10.0,16.0,49,0.00,,,-99.99,0.000000,,2013-03-12 04:22:00,
2013-03-11 22:32:00,42.0,24.0,-100.00,WNW,288,10.0,16.0,49,0.00,,,-99.99,0.000000,,2013-03-12 04:32:00,
2013-03-11 22:42:00,42.0,24.0,-100.00,WNW,288,10.0,16.0,49,0.00,,,-99.99,0.000000,,2013-03-12 04:42:00,
2013-03-11 22:51:00,41.0,23.0,-100.00,NW,312,7.0,15.0,48,0.00,,,0.00,0.000000,,2013-03-12 04:51:00,
2013-03-11 23:12:00,41.0,23.0,-100.00,NW,312,7.0,15.0,48,0.00,,,0.00,0.000000,,2013-03-12 05:12:00,
2013-03-11 23:22:00,41.0,23.0,-100.00,NW,312,7.0,15.0,48,0.00,,,0.00,0.000000,,2013-03-12 05:22:00,
2013-03-11 23:32:00,41.0,23.0,-100.00,NW,312,7.0,15.0,48,0.00,,,0.00,0.000000,,2013-03-12 05:32:00,
2013-03-11 23:42:00,41.0,23.0,-100.00,NW,312,7.0,15.0,48,0.00,,,0.00,0.000000,,2013-03-12 05:42:00,
2013-03-11 23:51:00,40.0,24.0,-100.00,NW,314,6.0,10.0,52,0.00,,,0.00,0.000000,,2013-03-12 05:51:00,